• In Hungary
  • List of Countries
  • For 7 days
  • Water Temperature
  • Satellite Maps
  • Weather Map
  • News
  • Weather Widgets
  • user-avatar
    Login

    Hourly Weather Dzhankoj

    Today, 22 September, Saturday

    Time Temperature Precipitation Wind Pressure Humidity
    00:00 +21°C° 0 mm 1 mps 761 mmHg 58%
    01:00 +20°C° 0 mm 1 mps 761 mmHg 59%
    02:00 +20°C° 0 mm 1 mps 761 mmHg 58%
    03:00 +19°C° 0 mm 2 mps 761 mmHg 59%
    04:00 +19°C° 0 mm 2 mps 761 mmHg 60%
    05:00 +19°C° 0 mm 2 mps 761 mmHg 61%
    06:00 +20°C° 0 mm 2 mps 761 mmHg 58%
    07:00 +23°C° 0 mm 2 mps 761 mmHg 55%
    08:00 +24°C° 0 mm 3 mps 761 mmHg 52%
    09:00 +26°C° 0 mm 3 mps 761 mmHg 47%
    10:00 +27°C° 0 mm 3 mps 761 mmHg 42%
    11:00 +29°C° 0 mm 3 mps 761 mmHg 37%
    12:00 +29°C° 0 mm 3 mps 761 mmHg 35%
    13:00 +30°C° 0 mm 4 mps 760 mmHg 33%
    14:00 +30°C° 0 mm 4 mps 760 mmHg 31%
    15:00 +29°C° 0 mm 4 mps 760 mmHg 35%
    16:00 +27°C° 0 mm 4 mps 760 mmHg 40%
    17:00 +26°C° 0 mm 4 mps 760 mmHg 44%
    18:00 +24°C° 0 mm 3 mps 760 mmHg 49%
    19:00 +22°C° 0 mm 3 mps 760 mmHg 53%
    20:00 +21°C° 0 mm 3 mps 760 mmHg 58%
    21:00 +20°C° 0 mm 2 mps 760 mmHg 59%
    22:00 +20°C° 0 mm 2 mps 760 mmHg 61%
    23:00 +20°C° 0 mm 2 mps 760 mmHg 62%

    Tomorrow, 23 September, Sunday

    Time Temperature Precipitation Wind Pressure Humidity
    00:00 +20°C° 0 mm 2 mps 760 mmHg 63%
    01:00 +20°C° 0 mm 2 mps 759 mmHg 64%
    02:00 +19°C° 0 mm 2 mps 759 mmHg 65%
    03:00 +19°C° 0 mm 2 mps 759 mmHg 65%
    04:00 +19°C° 0 mm 2 mps 759 mmHg 66%
    05:00 +19°C° 0 mm 3 mps 759 mmHg 67%
    06:00 +20°C° 0 mm 3 mps 759 mmHg 63%
    07:00 +22°C° 0 mm 4 mps 759 mmHg 59%
    08:00 +23°C° 0 mm 4 mps 760 mmHg 55%
    09:00 +23°C° 0 mm 4 mps 760 mmHg 56%
    10:00 +23°C° 0 mm 4 mps 760 mmHg 57%
    11:00 +23°C° 0 mm 4 mps 760 mmHg 58%
    12:00 +23°C° 0 mm 5 mps 760 mmHg 59%
    13:00 +23°C° 0 mm 5 mps 760 mmHg 60%
    14:00 +22°C° 0 mm 6 mps 761 mmHg 61%
    15:00 +22°C° 0 mm 5 mps 761 mmHg 60%
    16:00 +21°C° 0 mm 5 mps 761 mmHg 60%
    17:00 +20°C° 0 mm 5 mps 761 mmHg 59%
    18:00 +19°C° 0 mm 4 mps 762 mmHg 60%
    19:00 +18°C° 0 mm 3 mps 762 mmHg 61%
    20:00 +17°C° 0 mm 3 mps 763 mmHg 62%
    21:00 +17°C° 0 mm 2 mps 763 mmHg 61%
    22:00 +16°C° 0 mm 2 mps 763 mmHg 60%
    23:00 +16°C° 0 mm 1 mps 763 mmHg 59%

    Day after tomorrow, 24 September, Monday

    Time Temperature Precipitation Wind Pressure Humidity
    00:00 +16°C° 0 mm 1 mps 763 mmHg 59%
    01:00 +15°C° 0 mm 1 mps 763 mmHg 59%
    02:00 +15°C° 0 mm 1 mps 763 mmHg 59%
    03:00 +15°C° 0 mm 1 mps 763 mmHg 59%
    04:00 +15°C° 0 mm 2 mps 763 mmHg 59%
    05:00 +14°C° 0 mm 2 mps 762 mmHg 59%
    06:00 +16°C° 0 mm 3 mps 762 mmHg 54%
    07:00 +18°C° 0 mm 4 mps 762 mmHg 50%
    08:00 +19°C° 0 mm 4 mps 762 mmHg 45%
    09:00 +21°C° 0 mm 5 mps 762 mmHg 41%
    10:00 +22°C° 0 mm 5 mps 761 mmHg 38%
    11:00 +25°C° 0 mm 5 mps 761 mmHg 34%
    12:00 +26°C° 0 mm 5 mps 760 mmHg 34%
    13:00 +27°C° 0 mm 5 mps 760 mmHg 35%
    14:00 +27°C° 0 mm 5 mps 759 mmHg 35%
    15:00 +27°C° 0 mm 5 mps 758 mmHg 39%
    16:00 +26°C° 0 mm 5 mps 758 mmHg 43%
    17:00 +25°C° 0 mm 5 mps 757 mmHg 47%
    18:00 +23°C° 0 mm 5 mps 757 mmHg 52%
    19:00 +21°C° 0 mm 5 mps 757 mmHg 58%
    20:00 +20°C° 0 mm 5 mps 758 mmHg 63%
    21:00 +20°C° 0.3 mm 6 mps 758 mmHg 65%
    22:00 +18°C° 0.3 mm 7 mps 758 mmHg 68%
    23:00 +17°C° 0.3 mm 8 mps 759 mmHg 70%

    25 September, Tuesday

    Time Temperature Precipitation Wind Pressure Humidity
    00:00 +16°C° 0.5 mm 7 mps 759 mmHg 71%
    01:00 +15°C° 0.5 mm 6 mps 759 mmHg 72%
    02:00 +14°C° 0.5 mm 5 mps 760 mmHg 72%
    03:00 +14°C° 0.6 mm 5 mps 760 mmHg 72%
    04:00 +13°C° 0.6 mm 5 mps 761 mmHg 72%
    05:00 +13°C° 0.6 mm 5 mps 761 mmHg 72%
    06:00 +13°C° 0 mm 6 mps 761 mmHg 69%
    07:00 +13°C° 0 mm 6 mps 762 mmHg 66%
    08:00 +14°C° 0 mm 6 mps 762 mmHg 62%
    09:00 +14°C° 0 mm 7 mps 762 mmHg 58%
    10:00 +15°C° 0 mm 7 mps 763 mmHg 54%
    11:00 +15°C° 0 mm 7 mps 763 mmHg 49%
    12:00 +16°C° 0 mm 7 mps 763 mmHg 46%
    13:00 +16°C° 0 mm 7 mps 763 mmHg 42%
    14:00 +17°C° 0 mm 7 mps 763 mmHg 38%
    15:00 +16°C° 0 mm 7 mps 763 mmHg 41%
    16:00 +16°C° 0 mm 7 mps 763 mmHg 44%
    17:00 +15°C° 0 mm 6 mps 763 mmHg 48%
    18:00 +14°C° 0 mm 6 mps 764 mmHg 51%
    19:00 +13°C° 0 mm 6 mps 765 mmHg 54%
    20:00 +13°C° 0 mm 6 mps 766 mmHg 58%
    21:00 +11°C° 0.1 mm 6 mps 766 mmHg 59%
    22:00 +11°C° 0.1 mm 6 mps 766 mmHg 60%
    23:00 +10°C° 0.1 mm 6 mps 767 mmHg 61%

    26 September, Wednesday

    Time Temperature Precipitation Wind Pressure Humidity
    00:00 +10°C° 0 mm 6 mps 767 mmHg 61%
    01:00 +9°C° 0 mm 6 mps 767 mmHg 61%
    02:00 +9°C° 0 mm 6 mps 768 mmHg 62%
    03:00 +8°C° 0 mm 6 mps 768 mmHg 63%
    04:00 +8°C° 0 mm 5 mps 768 mmHg 64%
    05:00 +8°C° 0 mm 5 mps 769 mmHg 65%
    06:00 +8°C° 0 mm 5 mps 769 mmHg 62%
    07:00 +9°C° 0 mm 5 mps 770 mmHg 58%
    08:00 +10°C° 0 mm 5 mps 770 mmHg 55%
    09:00 +11°C° 0 mm 6 mps 770 mmHg 50%
    10:00 +13°C° 0 mm 6 mps 770 mmHg 45%
    11:00 +14°C° 0 mm 6 mps 771 mmHg 41%
    12:00 +14°C° 0 mm 6 mps 771 mmHg 39%
    13:00 +14°C° 0 mm 6 mps 770 mmHg 37%
    14:00 +15°C° 0 mm 6 mps 770 mmHg 35%
    15:00 +14°C° 0 mm 5 mps 770 mmHg 36%
    16:00 +14°C° 0 mm 5 mps 770 mmHg 38%
    17:00 +13°C° 0 mm 4 mps 770 mmHg 39%
    18:00 +12°C° 0 mm 4 mps 771 mmHg 41%
    19:00 +12°C° 0 mm 3 mps 771 mmHg 43%
    20:00 +11°C° 0 mm 3 mps 771 mmHg 46%
    21:00 +10°C° 0 mm 3 mps 771 mmHg 46%
    22:00 +10°C° 0 mm 2 mps 771 mmHg 47%
    23:00 +10°C° 0 mm 2 mps 771 mmHg 48%

    27 September, Thursday

    Time Temperature Precipitation Wind Pressure Humidity
    00:00 +9°C° 0 mm 2 mps 771 mmHg 48%
    01:00 +9°C° 0 mm 2 mps 771 mmHg 49%
    02:00 +9°C° 0 mm 2 mps 771 mmHg 49%
    03:00 +8°C° 0 mm 2 mps 770 mmHg 50%
    04:00 +8°C° 0 mm 2 mps 770 mmHg 50%
    05:00 +8°C° 0 mm 2 mps 770 mmHg 51%
    06:00 +9°C° 0 mm 2 mps 770 mmHg 47%
    07:00 +12°C° 0 mm 2 mps 770 mmHg 44%
    08:00 +13°C° 0 mm 2 mps 770 mmHg 40%
    09:00 +14°C° 0 mm 2 mps 770 mmHg 37%
    10:00 +16°C° 0 mm 2 mps 769 mmHg 34%
    11:00 +17°C° 0 mm 2 mps 769 mmHg 31%
    12:00 +18°C° 0 mm 2 mps 768 mmHg 30%
    13:00 +19°C° 0 mm 3 mps 768 mmHg 28%
    14:00 +19°C° 0 mm 3 mps 767 mmHg 27%
    15:00 +18°C° 0 mm 3 mps 767 mmHg 30%
    16:00 +18°C° 0 mm 3 mps 767 mmHg 34%
    17:00 +17°C° 0 mm 2 mps 766 mmHg 37%
    18:00 +16°C° 0 mm 2 mps 766 mmHg 41%
    19:00 +15°C° 0 mm 2 mps 766 mmHg 45%
    20:00 +14°C° 0 mm 2 mps 766 mmHg 49%
    21:00 +14°C° 0 mm 2 mps 766 mmHg 50%
    22:00 +13°C° 0 mm 2 mps 765 mmHg 50%
    23:00 +13°C° 0 mm 2 mps 765 mmHg 51%
    Show more